Location: Sluknov
(51.0170°N, 14.4670°E)
Time: 10:21:45
(UTC+01:00)

ISS - Pass Details

Date: 21 February 2026
Orbit: 416 x 426 km, 51.6° (Epoch: 9 March)

Event Time Altitude Azimuth Distance (km) Brightness Sun altitude
Exits shadow 04:13:16 22° 91° (E) 974 -1.3 -27.2°
Drops below altitude 10° 04:14:39 10° 81° (E) 1,495 0.0 -27.0°
Sets 04:16:47 0° 75° (ENE) 2,360 1.4 -26.7°
